sat.trackr.live / text

‹ back to catalog

STARLINK-35198

NORAD 65672 · 2025-211W

PAYLOAD ACTIVE UNKNOWN

§ Identity

Operator
Country
US
Launch date
2025-09-19
Launch site
AFWTR
Launch vehicle
Mass (kg)
RCS (m²)

Purposes: comms

External: N2YO · Heavens-Above · Gunter

§ Orbital elements

Epoch: 2026-09-20T13:44:51.698976Z

Period
93.91 min
Inclination
97.2848°
Eccentricity
0.0000264
Mean motion
15.33461022 rev/d
Perigee alt
465.3 km
Apogee alt
465.7 km
Semi-major
6,843.6 km
B*
3.8919e-4
RAAN
303.7932°
Arg perigee
234.9794°
Mean anomaly
125.1424°
Rev number
5,653

§ Raw data

STARLINK-351981 65672U 25211W   26263.57282059  .00012517  00000+0  38919-3 0  99922 65672  97.2848 303.7932 0000264 234.9794 125.1424 15.33461022 56538

JSON: /api/v1/satellites/65672 · /tle

For live sub-satellite position, see the globe view (requires WebGL).

§ Visibility from observer

Set your observer location to see the next 7 days of passes ≥ 10°. The values pass through the URL so the page stays shareable.

No JS? Fill the form by hand. The geolocation button needs JavaScript.